Location: Nelson
(47.1935°N, 121.0537°W)
Time: 13:05:23
(UTC+00:00)

BlueWalker 3 - Visible Passes

Search period start: 30 November 2022 00:00
Search period end: 10 December 2022 00:00
Orbit: 500 x 519 km, 53.2° (Epoch: 29 November)

Date Brightness Start Highest point End Pass type
(mag) Time Alt. Az. Time Alt. Az. Time Alt. Az.
30 Nov 2.1 00:46:01 10° WSW 00:49:56 73° NNW 00:53:52 10° ENE visible
30 Nov 3.0 02:25:26 10° WNW 02:29:02 34° N 02:29:04 34° N visible
01 Dec 2.9 02:07:05 10° WNW 02:10:41 34° N 02:11:25 31° NNE visible
02 Dec 3.0 01:48:45 10° WNW 01:52:20 33° N 01:53:45 25° NE visible
02 Dec 4.8 03:27:52 10° WNW 03:28:34 14° NW 03:28:34 14° NW visible
03 Dec 3.0 01:30:24 10° WNW 01:33:59 33° N 01:36:05 20° NE visible
03 Dec 4.3 03:09:29 10° WNW 03:10:55 20° NW 03:10:55 20° NW visible
04 Dec 3.0 01:12:02 10° WNW 01:15:37 33° N 01:18:27 14° ENE visible
04 Dec 3.6 02:51:06 10° WNW 02:53:17 29° NW 02:53:17 29° NW visible
05 Dec 3.0 00:53:40 10° WNW 00:57:15 33° N 01:00:49 10° ENE visible
05 Dec 2.8 02:32:42 10° WNW 02:35:41 40° NNW 02:35:41 40° NNW visible
06 Dec 2.2 02:14:18 10° WNW 02:18:07 49° NNE 02:18:08 49° NNE visible
07 Dec 2.2 01:55:54 10° WNW 01:59:43 50° NNE 02:00:40 40° ENE visible
07 Dec 4.9 03:34:40 10° WNW 03:35:31 15° WNW 03:35:31 15° WNW visible
08 Dec 2.2 01:37:28 10° WNW 01:41:19 52° NNE 01:43:18 25° E visible
08 Dec 4.2 03:16:17 10° WNW 03:18:09 24° W 03:18:09 24° W visible
09 Dec 2.1 01:19:03 10° WNW 01:22:55 54° NNE 01:26:04 14° E visible
09 Dec 3.5 02:57:53 10° WNW 03:00:56 35° WSW 03:00:56 35° WSW visible
